Time,TemperatureF,DewpointF,PressureIn,WindDirection,WindDirectionDegrees,WindSpeedMPH,WindSpeedGustMPH,Humidity,HourlyPrecipIn,Conditions,Clouds,dailyrainin,SoftwareType,DateUTC
2013-11-21 00:00:00,57.2,52.1,30.24,NNE,23,1.3,2.5,83,0.00,,,0.00,WUHU216HW,2013-11-21 05:00:00,
2013-11-21 00:05:00,57.1,51.9,30.24,NE,45,0.7,1.8,83,0.00,,,0.00,WUHU216HW,2013-11-21 05:05:00,
2013-11-21 00:10:00,57.1,51.9,30.24,ENE,68,1.1,1.8,83,0.00,,,0.00,WUHU216HW,2013-11-21 05:10:00,
2013-11-21 00:15:00,57.1,51.9,30.24,NE,45,2.0,2.2,83,0.00,,,0.00,WUHU216HW,2013-11-21 05:15:00,
2013-11-21 00:20:00,57.1,51.9,30.24,NNE,23,0.4,2.2,83,0.00,,,0.00,WUHU216HW,2013-11-21 05:20:00,
2013-11-21 00:25:00,57.1,51.9,30.24,North,0,0.9,1.8,83,0.00,,,0.00,WUHU216HW,2013-11-21 05:25:00,
2013-11-21 00:30:00,57.1,51.9,30.24,NE,45,1.1,2.5,83,0.00,,,0.00,WUHU216HW,2013-11-21 05:30:00,
2013-11-21 00:35:00,57.1,51.9,30.24,NE,45,2.0,2.5,83,0.00,,,0.00,WUHU216HW,2013-11-21 05:35:00,
2013-11-21 00:40:00,57.1,51.9,30.24,NE,45,2.5,2.5,83,0.00,,,0.00,WUHU216HW,2013-11-21 05:40:00,
2013-11-21 00:45:00,57.1,51.9,30.23,NNE,23,1.1,3.4,83,0.00,,,0.00,WUHU216HW,2013-11-21 05:45:00,
2013-11-21 00:50:00,57.1,51.9,30.23,North,0,1.3,3.4,83,0.00,,,0.00,WUHU216HW,2013-11-21 05:50:00,
2013-11-21 00:55:00,56.9,51.8,30.23,NNE,23,1.1,2.7,83,0.00,,,0.00,WUHU216HW,2013-11-21 05:55:00,
2013-11-21 01:00:00,56.9,51.8,30.23,NE,45,1.8,2.2,83,0.00,,,0.00,WUHU216HW,2013-11-21 06:00:00,
2013-11-21 01:05:00,56.9,51.8,30.23,NE,45,1.8,2.2,83,0.00,,,0.00,WUHU216HW,2013-11-21 06:05:00,
2013-11-21 01:10:00,56.9,51.8,30.24,NE,45,2.7,2.7,83,0.00,,,0.00,WUHU216HW,2013-11-21 06:10:00,
2013-11-21 01:15:00,56.9,51.8,30.24,NE,45,1.3,2.7,83,0.00,,,0.00,WUHU216HW,2013-11-21 06:15:00,
2013-11-21 01:20:00,56.9,51.8,30.24,North,0,1.8,2.7,83,0.00,,,0.00,WUHU216HW,2013-11-21 06:20:00,
2013-11-21 01:25:00,56.9,51.8,30.24,NE,45,1.1,2.7,83,0.00,,,0.00,WUHU216HW,2013-11-21 06:25:00,
2013-11-21 01:30:00,56.9,51.8,30.24,ENE,68,2.5,2.5,83,0.00,,,0.00,WUHU216HW,2013-11-21 06:30:00,
2013-11-21 01:35:00,56.9,51.8,30.24,NNE,23,1.1,2.5,83,0.00,,,0.00,WUHU216HW,2013-11-21 06:35:00,
2013-11-21 01:40:00,56.9,51.8,30.24,NE,45,2.2,2.9,83,0.00,,,0.00,WUHU216HW,2013-11-21 06:40:00,
2013-11-21 01:45:00,56.9,51.8,30.24,NE,45,2.5,3.8,83,0.00,,,0.00,WUHU216HW,2013-11-21 06:45:00,
2013-11-21 01:50:00,56.9,51.8,30.24,NE,45,1.8,3.8,83,0.00,,,0.00,WUHU216HW,2013-11-21 06:50:00,
2013-11-21 01:55:00,56.9,51.8,30.24,NE,45,0.9,3.4,83,0.00,,,0.00,WUHU216HW,2013-11-21 06:55:00,
2013-11-21 02:00:00,56.9,51.4,30.24,East,90,1.6,3.4,82,0.00,,,0.00,WUHU216HW,2013-11-21 07:00:00,
2013-11-21 02:05:00,56.7,51.2,30.24,NE,45,2.5,2.7,82,0.00,,,0.00,WUHU216HW,2013-11-21 07:05:00,
2013-11-21 02:10:00,56.7,51.2,30.24,NNE,23,1.8,2.7,82,0.00,,,0.00,WUHU216HW,2013-11-21 07:10:00,
2013-11-21 02:15:00,56.7,51.2,30.24,NE,45,1.6,4.3,82,0.00,,,0.00,WUHU216HW,2013-11-21 07:15:00,
2013-11-21 02:20:00,56.7,51.2,30.24,NE,45,2.9,4.3,82,0.00,,,0.00,WUHU216HW,2013-11-21 07:20:00,
2013-11-21 02:25:00,56.7,51.2,30.24,NE,45,2.2,3.1,82,0.00,,,0.00,WUHU216HW,2013-11-21 07:25:00,
2013-11-21 02:31:00,56.5,51.0,30.24,NE,45,1.3,3.1,82,0.00,,,0.00,WUHU216HW,2013-11-21 07:31:00,
2013-11-21 02:36:00,56.3,50.6,30.24,ENE,68,2.0,2.7,81,0.00,,,0.00,WUHU216HW,2013-11-21 07:36:00,
2013-11-21 02:41:00,56.3,50.6,30.24,ENE,68,1.3,3.1,81,0.00,,,0.00,WUHU216HW,2013-11-21 07:41:00,
2013-11-21 02:46:00,56.2,50.4,30.24,NNE,23,1.3,3.8,81,0.00,,,0.00,WUHU216HW,2013-11-21 07:46:00,
2013-11-21 02:51:00,56.2,50.4,30.24,NE,45,1.8,3.8,81,0.00,,,0.00,WUHU216HW,2013-11-21 07:51:00,
2013-11-21 02:56:00,56.0,50.2,30.24,NE,45,1.1,3.6,81,0.00,,,0.00,WUHU216HW,2013-11-21 07:56:00,
2013-11-21 03:01:00,55.8,50.3,30.24,NE,45,2.7,3.4,82,0.00,,,0.00,WUHU216HW,2013-11-21 08:01:00,
2013-11-21 03:06:00,55.8,50.3,30.24,NNE,23,1.1,3.4,82,0.00,,,0.00,WUHU216HW,2013-11-21 08:06:00,
2013-11-21 03:11:00,55.8,50.3,30.24,NNE,23,1.1,3.8,82,0.00,,,0.00,WUHU216HW,2013-11-21 08:11:00,
2013-11-21 03:16:00,55.8,50.3,30.24,NE,45,1.1,3.8,82,0.00,,,0.00,WUHU216HW,2013-11-21 08:16:00,
2013-11-21 03:21:00,55.8,50.3,30.23,NE,45,2.5,2.5,82,0.00,,,0.00,WUHU216HW,2013-11-21 08:21:00,
2013-11-21 03:26:00,55.6,50.1,30.24,NE,45,1.6,2.5,82,0.00,,,0.00,WUHU216HW,2013-11-21 08:26:00,
2013-11-21 03:31:00,55.6,50.1,30.24,NNE,23,1.6,2.0,82,0.00,,,0.00,WUHU216HW,2013-11-21 08:31:00,
2013-11-21 03:36:00,55.6,50.1,30.24,NE,45,1.8,2.5,82,0.00,,,0.00,WUHU216HW,2013-11-21 08:36:00,
2013-11-21 03:41:00,55.4,50.0,30.24,NE,45,1.1,2.5,82,0.00,,,0.00,WUHU216HW,2013-11-21 08:41:00,
2013-11-21 03:46:00,55.4,50.0,30.24,NE,45,1.6,2.0,82,0.00,,,0.00,WUHU216HW,2013-11-21 08:46:00,
2013-11-21 03:51:00,55.4,50.0,30.24,North,0,1.6,2.0,82,0.00,,,0.00,WUHU216HW,2013-11-21 08:51:00,
2013-11-21 03:56:00,55.4,50.0,30.24,NE,45,0.9,2.0,82,0.00,,,0.00,WUHU216HW,2013-11-21 08:56:00,
2013-11-21 04:01:00,55.4,50.0,30.24,NE,45,2.7,2.7,82,0.00,,,0.00,WUHU216HW,2013-11-21 09:01:00,
2013-11-21 04:06:00,55.4,50.0,30.24,NNE,23,0.7,2.7,82,0.00,,,0.00,WUHU216HW,2013-11-21 09:06:00,
2013-11-21 04:11:00,55.3,49.8,30.24,NE,45,2.2,2.2,82,0.00,,,0.00,WUHU216HW,2013-11-21 09:11:00,
2013-11-21 04:16:00,55.3,49.8,30.24,North,0,1.1,2.2,82,0.00,,,0.00,WUHU216HW,2013-11-21 09:16:00,
2013-11-21 04:21:00,55.3,49.8,30.24,NE,45,1.8,2.0,82,0.00,,,0.00,WUHU216HW,2013-11-21 09:21:00,
2013-11-21 04:26:00,55.3,49.8,30.24,NE,45,1.3,1.8,82,0.00,,,0.00,WUHU216HW,2013-11-21 09:26:00,
2013-11-21 04:31:00,55.1,49.7,30.25,NE,45,1.1,2.5,82,0.00,,,0.00,WUHU216HW,2013-11-21 09:31:00,
2013-11-21 04:36:00,55.1,50.0,30.25,ENE,68,0.9,2.5,83,0.00,,,0.00,WUHU216HW,2013-11-21 09:36:00,
2013-11-21 04:41:00,55.1,50.0,30.25,NNE,23,1.1,1.8,83,0.00,,,0.00,WUHU216HW,2013-11-21 09:41:00,
2013-11-21 04:46:00,55.3,50.1,30.25,NE,45,1.6,1.8,83,0.00,,,0.00,WUHU216HW,2013-11-21 09:46:00,
2013-11-21 04:51:00,55.3,50.1,30.25,NE,45,0.4,2.9,83,0.00,,,0.00,WUHU216HW,2013-11-21 09:51:00,
2013-11-21 04:56:00,55.3,50.1,30.26,North,0,1.8,3.1,83,0.00,,,0.00,WUHU216HW,2013-11-21 09:56:00,
2013-11-21 05:01:00,55.3,50.1,30.26,NNE,23,1.1,3.1,83,0.00,,,0.00,WUHU216HW,2013-11-21 10:01:00,
2013-11-21 05:06:00,55.4,50.3,30.26,North,0,2.2,2.9,83,0.00,,,0.00,WUHU216HW,2013-11-21 10:06:00,
2013-11-21 05:11:00,55.4,50.3,30.26,NE,45,1.6,2.9,83,0.00,,,0.00,WUHU216HW,2013-11-21 10:11:00,
2013-11-21 05:16:00,55.4,50.3,30.26,NNE,23,1.6,2.9,83,0.00,,,0.00,WUHU216HW,2013-11-21 10:16:00,
2013-11-21 05:21:00,55.4,50.3,30.26,NNE,23,0.7,2.7,83,0.00,,,0.00,WUHU216HW,2013-11-21 10:21:00,
2013-11-21 05:26:00,55.4,50.3,30.26,NE,45,0.4,2.7,83,0.00,,,0.00,WUHU216HW,2013-11-21 10:26:00,
2013-11-21 05:31:00,55.4,50.6,30.26,NNE,23,3.1,3.1,84,0.00,,,0.00,WUHU216HW,2013-11-21 10:31:00,
2013-11-21 05:36:00,55.6,50.5,30.26,NNE,23,0.7,3.1,83,0.00,,,0.00,WUHU216HW,2013-11-21 10:36:00,
2013-11-21 05:41:00,55.6,50.8,30.26,North,0,1.3,2.2,84,0.00,,,0.00,WUHU216HW,2013-11-21 10:41:00,
2013-11-21 05:46:00,55.6,50.8,30.26,NE,45,3.8,3.8,84,0.00,,,0.00,WUHU216HW,2013-11-21 10:46:00,
2013-11-21 05:51:00,55.8,50.9,30.26,NNE,23,1.6,3.8,84,0.00,,,0.00,WUHU216HW,2013-11-21 10:51:00,
2013-11-21 05:56:00,55.8,50.9,30.26,NNE,23,1.6,3.6,84,0.00,,,0.00,WUHU216HW,2013-11-21 10:56:00,
2013-11-21 06:01:00,55.8,50.9,30.26,ENE,68,2.9,3.6,84,0.00,,,0.00,WUHU216HW,2013-11-21 11:01:00,
2013-11-21 06:06:00,55.8,50.9,30.26,NE,45,2.7,3.8,84,0.00,,,0.00,WUHU216HW,2013-11-21 11:06:00,
2013-11-21 06:11:00,55.8,50.9,30.26,NE,45,2.2,3.8,84,0.00,,,0.00,WUHU216HW,2013-11-21 11:11:00,
2013-11-21 06:16:00,55.8,50.9,30.27,NE,45,1.6,2.2,84,0.00,,,0.00,WUHU216HW,2013-11-21 11:16:00,
2013-11-21 06:21:00,56.0,51.1,30.27,ENE,68,1.8,2.5,84,0.00,,,0.00,WUHU216HW,2013-11-21 11:21:00,
2013-11-21 06:26:00,56.0,51.1,30.27,NE,45,2.2,2.5,84,0.00,,,0.00,WUHU216HW,2013-11-21 11:26:00,
2013-11-21 06:31:00,56.0,51.1,30.28,NE,45,2.5,2.7,84,0.00,,,0.00,WUHU216HW,2013-11-21 11:31:00,
2013-11-21 06:36:00,56.2,51.3,30.28,NE,45,2.5,2.7,84,0.00,,,0.00,WUHU216HW,2013-11-21 11:36:00,
2013-11-21 06:41:00,56.2,51.3,30.28,NE,45,1.3,2.5,84,0.00,,,0.00,WUHU216HW,2013-11-21 11:41:00,
2013-11-21 06:46:00,56.2,51.3,30.28,NE,45,2.5,2.5,84,0.00,,,0.00,WUHU216HW,2013-11-21 11:46:00,
2013-11-21 06:51:00,56.3,51.8,30.28,NE,45,3.4,3.4,85,0.00,,,0.00,WUHU216HW,2013-11-21 11:51:00,
2013-11-21 06:56:00,56.3,51.8,30.28,NE,45,3.4,3.6,85,0.00,,,0.00,WUHU216HW,2013-11-21 11:56:00,
2013-11-21 07:01:00,56.3,51.8,30.28,NE,45,3.6,3.6,85,0.00,,,0.00,WUHU216HW,2013-11-21 12:01:00,
2013-11-21 07:06:00,56.3,51.5,30.28,NE,45,2.0,3.6,84,0.00,,,0.00,WUHU216HW,2013-11-21 12:06:00,
2013-11-21 07:11:00,56.3,51.5,30.28,NNE,23,1.8,2.5,84,0.00,,,0.00,WUHU216HW,2013-11-21 12:11:00,
2013-11-21 07:16:00,56.3,51.5,30.28,NE,45,3.1,3.1,84,0.00,,,0.00,WUHU216HW,2013-11-21 12:16:00,
2013-11-21 07:21:00,56.3,51.8,30.28,NE,45,2.0,3.1,85,0.00,,,0.00,WUHU216HW,2013-11-21 12:21:00,
2013-11-21 07:26:00,56.3,51.8,30.28,NE,45,2.5,3.4,85,0.00,,,0.00,WUHU216HW,2013-11-21 12:26:00,
2013-11-21 07:31:00,56.3,51.8,30.28,NNE,23,1.8,3.4,85,0.00,,,0.00,WUHU216HW,2013-11-21 12:31:00,
2013-11-21 07:36:00,56.3,51.8,30.29,NE,45,1.1,3.4,85,0.00,,,0.00,WUHU216HW,2013-11-21 12:36:00,
2013-11-21 07:41:00,56.5,52.0,30.29,NNE,23,1.8,2.9,85,0.00,,,0.00,WUHU216HW,2013-11-21 12:41:00,
2013-11-21 07:46:00,56.5,52.0,30.29,ENE,68,1.1,4.3,85,0.00,,,0.00,WUHU216HW,2013-11-21 12:46:00,
2013-11-21 07:51:00,56.5,52.0,30.29,NE,45,3.6,4.3,85,0.00,,,0.00,WUHU216HW,2013-11-21 12:51:00,
2013-11-21 07:56:00,56.5,52.0,30.29,NE,45,5.1,5.1,85,0.00,,,0.00,WUHU216HW,2013-11-21 12:56:00,
2013-11-21 08:01:00,56.7,52.2,30.29,ENE,68,3.4,5.1,85,0.00,,,0.00,WUHU216HW,2013-11-21 13:01:00,
2013-11-21 08:06:00,56.7,52.6,30.29,NE,45,3.8,3.8,86,0.00,,,0.00,WUHU216HW,2013-11-21 13:06:00,
2013-11-21 08:11:00,56.9,52.4,30.29,ENE,68,2.5,3.8,85,0.00,,,0.00,WUHU216HW,2013-11-21 13:11:00,
2013-11-21 08:16:00,56.9,52.8,30.29,NE,45,2.7,3.4,86,0.00,,,0.00,WUHU216HW,2013-11-21 13:16:00,
2013-11-21 08:21:00,57.2,52.7,30.29,NE,45,1.8,4.0,85,0.00,,,0.00,WUHU216HW,2013-11-21 13:21:00,
2013-11-21 08:26:00,57.6,53.5,30.29,NE,45,2.9,4.0,86,0.00,,,0.00,WUHU216HW,2013-11-21 13:26:00,
2013-11-21 08:31:00,58.0,53.8,30.29,NE,45,4.7,4.7,86,0.00,,,0.00,WUHU216HW,2013-11-21 13:31:00,
2013-11-21 08:36:00,58.1,54.0,30.29,NE,45,2.5,4.7,86,0.00,,,0.00,WUHU216HW,2013-11-21 13:36:00,
2013-11-21 08:41:00,58.5,54.4,30.29,NE,45,3.6,3.6,86,0.00,,,0.00,WUHU216HW,2013-11-21 13:41:00,
2013-11-21 08:46:00,58.9,54.7,30.29,ENE,68,2.9,4.7,86,0.00,,,0.00,WUHU216HW,2013-11-21 13:46:00,
2013-11-21 08:51:00,59.2,55.1,30.29,NE,45,3.1,4.7,86,0.00,,,0.00,WUHU216HW,2013-11-21 13:51:00,
2013-11-21 08:56:00,59.6,55.1,30.29,ENE,68,5.4,5.4,85,0.00,,,0.00,WUHU216HW,2013-11-21 13:56:00,
2013-11-21 09:01:00,59.9,55.4,30.29,ENE,68,2.5,5.8,85,0.00,,,0.00,WUHU216HW,2013-11-21 14:01:00,
2013-11-21 09:06:00,60.1,55.6,30.29,ENE,68,3.6,5.8,85,0.00,,,0.00,WUHU216HW,2013-11-21 14:06:00,
2013-11-21 09:11:00,60.5,55.6,30.29,NNE,23,1.8,4.9,84,0.00,,,0.00,WUHU216HW,2013-11-21 14:11:00,
2013-11-21 09:16:00,60.5,55.6,30.29,ENE,68,2.2,4.3,84,0.00,,,0.00,WUHU216HW,2013-11-21 14:16:00,
2013-11-21 09:21:00,61.0,56.2,30.29,ENE,68,1.8,4.3,84,0.00,,,0.00,WUHU216HW,2013-11-21 14:21:00,
2013-11-21 09:26:00,61.9,56.7,30.30,ENE,68,4.0,4.0,83,0.00,,,0.00,WUHU216HW,2013-11-21 14:26:00,
2013-11-21 09:31:00,62.1,56.9,30.30,North,0,3.4,4.0,83,0.00,,,0.00,WUHU216HW,2013-11-21 14:31:00,
2013-11-21 09:36:00,62.1,56.5,30.30,NE,45,1.8,4.3,82,0.00,,,0.00,WUHU216HW,2013-11-21 14:36:00,
2013-11-21 09:41:00,62.3,56.7,30.31,ENE,68,1.8,4.3,82,0.00,,,0.00,WUHU216HW,2013-11-21 14:41:00,
2013-11-21 09:46:00,62.3,56.7,30.30,North,0,2.0,3.4,82,0.00,,,0.00,WUHU216HW,2013-11-21 14:46:00,
2013-11-21 09:51:00,62.6,57.1,30.30,NNE,23,2.7,4.5,82,0.00,,,0.00,WUHU216HW,2013-11-21 14:51:00,
2013-11-21 09:56:00,63.2,57.6,30.31,ENE,68,2.5,4.5,82,0.00,,,0.00,WUHU216HW,2013-11-21 14:56:00,
2013-11-21 10:01:00,63.7,57.8,30.30,NE,45,1.1,4.5,81,0.00,,,0.00,WUHU216HW,2013-11-21 15:01:00,
2013-11-21 10:06:00,64.4,58.9,30.30,ENE,68,3.1,3.6,82,0.00,,,0.00,WUHU216HW,2013-11-21 15:06:00,
2013-11-21 10:11:00,65.2,58.9,30.30,ENE,68,2.7,4.7,80,0.00,,,0.00,WUHU216HW,2013-11-21 15:11:00,
2013-11-21 10:16:00,67.1,60.8,30.31,NE,45,3.4,4.7,80,0.00,,,0.00,WUHU216HW,2013-11-21 15:16:00,
2013-11-21 10:21:00,68.0,60.6,30.31,ENE,68,2.9,4.5,77,0.00,,,0.00,WUHU216HW,2013-11-21 15:21:00,
2013-11-21 10:26:00,68.0,60.2,30.31,NE,45,3.1,4.5,76,0.00,,,0.00,WUHU216HW,2013-11-21 15:26:00,
2013-11-21 10:31:00,68.9,60.3,30.31,ENE,68,3.6,3.8,74,0.00,,,0.00,WUHU216HW,2013-11-21 15:31:00,
2013-11-21 10:36:00,68.8,59.8,30.31,ENE,68,3.8,3.8,73,0.00,,,0.00,WUHU216HW,2013-11-21 15:36:00,
2013-11-21 10:41:00,68.9,60.3,30.31,NE,45,4.0,4.0,74,0.00,,,0.00,WUHU216HW,2013-11-21 15:41:00,
2013-11-21 10:46:00,71.6,61.7,30.31,ENE,68,3.8,4.3,71,0.00,,,0.00,WUHU216HW,2013-11-21 15:46:00,
2013-11-21 10:51:00,73.1,63.2,30.31,NE,45,4.0,4.3,71,0.00,,,0.00,WUHU216HW,2013-11-21 15:51:00,
2013-11-21 10:56:00,73.6,62.0,30.31,ENE,68,1.8,4.0,67,0.00,,,0.00,WUHU216HW,2013-11-21 15:56:00,
2013-11-21 11:01:00,73.1,61.9,30.31,NE,45,1.1,4.0,68,0.00,,,0.00,WUHU216HW,2013-11-21 16:01:00,
2013-11-21 11:06:00,72.7,62.0,30.31,NNE,23,2.7,4.0,69,0.00,,,0.00,WUHU216HW,2013-11-21 16:06:00,
2013-11-21 11:11:00,72.4,61.7,30.31,ENE,68,2.0,5.4,69,0.00,,,0.00,WUHU216HW,2013-11-21 16:11:00,
2013-11-21 11:16:00,73.8,62.7,30.30,NE,45,2.5,5.6,68,0.00,,,0.00,WUHU216HW,2013-11-21 16:16:00,
2013-11-21 11:21:00,75.2,63.1,30.30,ENE,68,1.8,5.6,66,0.00,,,0.00,WUHU216HW,2013-11-21 16:21:00,
2013-11-21 11:26:00,76.3,63.6,30.29,ENE,68,2.7,4.7,65,0.00,,,0.00,WUHU216HW,2013-11-21 16:26:00,
2013-11-21 11:31:00,75.2,61.7,30.30,NE,45,4.0,4.9,63,0.00,,,0.00,WUHU216HW,2013-11-21 16:31:00,
2013-11-21 11:36:00,74.2,62.1,30.29,ENE,68,1.3,4.9,66,0.00,,,0.00,WUHU216HW,2013-11-21 16:36:00,
2013-11-21 11:41:00,74.5,62.4,30.29,ENE,68,3.8,4.3,66,0.00,,,0.00,WUHU216HW,2013-11-21 16:41:00,
2013-11-21 11:46:00,75.2,62.2,30.29,ENE,68,3.6,6.3,64,0.00,,,0.00,WUHU216HW,2013-11-21 16:46:00,
2013-11-21 11:51:00,74.7,61.7,30.29,ENE,68,3.1,6.3,64,0.00,,,0.00,WUHU216HW,2013-11-21 16:51:00,
2013-11-21 11:56:00,73.8,61.8,30.29,North,0,2.5,3.4,66,0.00,,,0.00,WUHU216HW,2013-11-21 16:56:00,
2013-11-21 12:01:00,74.0,61.9,30.29,South,180,2.5,4.0,66,0.00,,,0.00,WUHU216HW,2013-11-21 17:01:00,
2013-11-21 12:06:00,73.4,61.8,30.29,NE,45,3.6,4.0,67,0.00,,,0.00,WUHU216HW,2013-11-21 17:06:00,
2013-11-21 12:11:00,72.7,61.1,30.29,NNE,23,5.6,5.6,67,0.00,,,0.00,WUHU216HW,2013-11-21 17:11:00,
2013-11-21 12:16:00,72.4,61.2,30.29,South,180,1.6,5.6,68,0.00,,,0.00,WUHU216HW,2013-11-21 17:16:00,
2013-11-21 12:21:00,71.6,60.5,30.29,NNE,23,3.6,4.7,68,0.00,,,0.00,WUHU216HW,2013-11-21 17:21:00,
2013-11-21 12:26:00,71.6,60.9,30.28,NE,45,4.0,4.9,69,0.00,,,0.00,WUHU216HW,2013-11-21 17:26:00,
2013-11-21 12:31:00,71.8,61.6,30.28,ENE,68,1.6,5.4,70,0.00,,,0.00,WUHU216HW,2013-11-21 17:31:00,
2013-11-21 12:36:00,72.0,61.7,30.28,ENE,68,3.6,5.4,70,0.00,,,0.00,WUHU216HW,2013-11-21 17:36:00,
2013-11-21 12:41:00,72.0,61.7,30.28,NE,45,3.6,5.1,70,0.00,,,0.00,WUHU216HW,2013-11-21 17:41:00,
2013-11-21 12:46:00,72.4,62.5,30.28,East,90,2.9,4.7,71,0.00,,,0.00,WUHU216HW,2013-11-21 17:46:00,
2013-11-21 12:51:00,72.0,61.7,30.28,NE,45,4.0,4.0,70,0.00,,,0.00,WUHU216HW,2013-11-21 17:51:00,
2013-11-21 12:56:00,71.6,61.4,30.27,SSE,158,2.5,4.0,70,0.00,,,0.00,WUHU216HW,2013-11-21 17:56:00,
2013-11-21 13:01:00,71.6,61.4,30.27,North,0,4.0,4.7,70,0.00,,,0.00,WUHU216HW,2013-11-21 18:01:00,
2013-11-21 13:06:00,71.8,61.6,30.27,NNE,23,1.8,4.7,70,0.00,,,0.00,WUHU216HW,2013-11-21 18:06:00,
2013-11-21 13:11:00,72.2,62.3,30.27,NNE,23,4.5,4.5,71,0.00,,,0.00,WUHU216HW,2013-11-21 18:11:00,
2013-11-21 13:16:00,72.4,62.5,30.27,NE,45,2.9,4.5,71,0.00,,,0.00,WUHU216HW,2013-11-21 18:16:00,
2013-11-21 13:21:00,72.4,62.5,30.27,NE,45,3.4,5.1,71,0.00,,,0.00,WUHU216HW,2013-11-21 18:21:00,
2013-11-21 13:26:00,72.5,62.6,30.26,NE,45,6.0,6.0,71,0.00,,,0.00,WUHU216HW,2013-11-21 18:26:00,
2013-11-21 13:31:00,72.5,62.6,30.26,NE,45,2.2,6.0,71,0.00,,,0.00,WUHU216HW,2013-11-21 18:31:00,
2013-11-21 13:36:00,72.7,62.8,30.26,ESE,113,3.4,4.5,71,0.00,,,0.00,WUHU216HW,2013-11-21 18:36:00,
2013-11-21 13:41:00,73.1,62.8,30.26,ENE,68,4.3,4.3,70,0.00,,,0.00,WUHU216HW,2013-11-21 18:41:00,
2013-11-21 13:46:00,73.1,63.2,30.26,NE,45,6.3,6.3,71,0.00,,,0.00,WUHU216HW,2013-11-21 18:46:00,
2013-11-21 13:51:00,73.1,62.8,30.26,East,90,2.2,6.3,70,0.00,,,0.00,WUHU216HW,2013-11-21 18:51:00,
2013-11-21 13:56:00,72.7,62.8,30.25,NE,45,2.0,4.7,71,0.00,,,0.00,WUHU216HW,2013-11-21 18:56:00,
2013-11-21 14:01:00,72.7,62.8,30.25,East,90,2.0,4.7,71,0.00,,,0.00,WUHU216HW,2013-11-21 19:01:00,
2013-11-21 14:06:00,72.7,62.8,30.25,ENE,68,4.9,5.4,71,0.00,,,0.00,WUHU216HW,2013-11-21 19:06:00,
2013-11-21 14:11:00,72.7,62.8,30.25,NE,45,3.4,5.4,71,0.00,,,0.00,WUHU216HW,2013-11-21 19:11:00,
2013-11-21 14:16:00,72.5,62.6,30.25,NE,45,3.6,4.3,71,0.00,,,0.00,WUHU216HW,2013-11-21 19:16:00,
2013-11-21 14:21:00,72.9,63.0,30.25,NE,45,2.9,4.0,71,0.00,,,0.00,WUHU216HW,2013-11-21 19:21:00,
2013-11-21 14:26:00,73.3,63.4,30.25,ENE,68,2.2,3.4,71,0.00,,,0.00,WUHU216HW,2013-11-21 19:26:00,
2013-11-21 14:31:00,73.8,63.9,30.25,ENE,68,2.5,3.1,71,0.00,,,0.00,WUHU216HW,2013-11-21 19:31:00,
2013-11-21 14:36:00,74.2,63.8,30.25,NE,45,2.9,3.4,70,0.00,,,0.00,WUHU216HW,2013-11-21 19:36:00,
2013-11-21 14:41:00,74.3,64.0,30.24,NE,45,2.0,3.4,70,0.00,,,0.00,WUHU216HW,2013-11-21 19:41:00,
2013-11-21 14:46:00,74.3,64.0,30.24,ENE,68,1.8,4.9,70,0.00,,,0.00,WUHU216HW,2013-11-21 19:46:00,
2013-11-21 14:51:00,74.2,63.8,30.25,NE,45,3.1,4.9,70,0.00,,,0.00,WUHU216HW,2013-11-21 19:51:00,
2013-11-21 14:56:00,74.0,63.6,30.25,North,0,2.7,4.0,70,0.00,,,0.00,WUHU216HW,2013-11-21 19:56:00,
2013-11-21 15:01:00,74.0,63.6,30.24,SSE,158,1.8,4.0,70,0.00,,,0.00,WUHU216HW,2013-11-21 20:01:00,
2013-11-21 15:06:00,74.0,63.6,30.24,NNE,23,1.3,3.6,70,0.00,,,0.00,WUHU216HW,2013-11-21 20:06:00,
2013-11-21 15:11:00,74.2,63.8,30.24,NNE,23,1.1,3.4,70,0.00,,,0.00,WUHU216HW,2013-11-21 20:11:00,
2013-11-21 15:16:00,74.2,63.8,30.24,ENE,68,2.9,3.6,70,0.00,,,0.00,WUHU216HW,2013-11-21 20:16:00,
2013-11-21 15:21:00,74.0,63.6,30.24,ENE,68,3.8,3.8,70,0.00,,,0.00,WUHU216HW,2013-11-21 20:21:00,
2013-11-21 15:26:00,73.8,63.6,30.24,NNE,23,2.2,3.8,70,0.00,,,0.00,WUHU216HW,2013-11-21 20:26:00,
2013-11-21 15:31:00,73.8,63.9,30.24,ENE,68,1.1,3.8,71,0.00,,,0.00,WUHU216HW,2013-11-21 20:31:00,
2013-11-21 15:36:00,73.8,63.9,30.24,NE,45,2.5,3.8,71,0.00,,,0.00,WUHU216HW,2013-11-21 20:36:00,
2013-11-21 15:41:00,73.8,63.9,30.24,NE,45,4.0,4.0,71,0.00,,,0.00,WUHU216HW,2013-11-21 20:41:00,
2013-11-21 15:46:00,73.6,63.7,30.24,ENE,68,2.0,4.0,71,0.00,,,0.00,WUHU216HW,2013-11-21 20:46:00,
2013-11-21 15:51:00,73.6,63.7,30.25,NE,45,2.0,2.5,71,0.00,,,0.00,WUHU216HW,2013-11-21 20:51:00,
2013-11-21 15:56:00,73.4,63.5,30.25,NE,45,4.0,4.0,71,0.00,,,0.00,WUHU216HW,2013-11-21 20:56:00,
2013-11-21 16:01:00,73.4,63.5,30.25,ENE,68,2.5,4.0,71,0.00,,,0.00,WUHU216HW,2013-11-21 21:01:00,
2013-11-21 16:06:00,73.1,63.2,30.24,NE,45,2.5,3.6,71,0.00,,,0.00,WUHU216HW,2013-11-21 21:06:00,
2013-11-21 16:11:00,73.1,63.5,30.25,NE,45,2.9,3.4,72,0.00,,,0.00,WUHU216HW,2013-11-21 21:11:00,
2013-11-21 16:16:00,72.7,63.2,30.25,NE,45,2.0,3.4,72,0.00,,,0.00,WUHU216HW,2013-11-21 21:16:00,
2013-11-21 16:21:00,72.7,63.2,30.25,ENE,68,3.1,3.4,72,0.00,,,0.00,WUHU216HW,2013-11-21 21:21:00,
2013-11-21 16:26:00,72.5,63.5,30.25,ENE,68,2.0,3.4,73,0.00,,,0.00,WUHU216HW,2013-11-21 21:26:00,
2013-11-21 16:31:00,72.4,63.3,30.25,NE,45,3.4,3.4,73,0.00,,,0.00,WUHU216HW,2013-11-21 21:31:00,
2013-11-21 16:36:00,72.2,63.1,30.25,NE,45,1.6,3.6,73,0.00,,,0.00,WUHU216HW,2013-11-21 21:36:00,
2013-11-21 16:41:00,72.0,62.9,30.25,NE,45,1.3,3.6,73,0.00,,,0.00,WUHU216HW,2013-11-21 21:41:00,
2013-11-21 16:46:00,71.8,62.7,30.25,NE,45,2.0,2.7,73,0.00,,,0.00,WUHU216HW,2013-11-21 21:46:00,
2013-11-21 16:51:00,71.6,62.6,30.25,NE,45,1.8,2.5,73,0.00,,,0.00,WUHU216HW,2013-11-21 21:51:00,
2013-11-21 16:56:00,71.3,62.6,30.25,ENE,68,2.2,2.5,74,0.00,,,0.00,WUHU216HW,2013-11-21 21:56:00,
2013-11-21 17:01:00,70.9,62.2,30.26,ENE,68,1.8,2.7,74,0.00,,,0.00,WUHU216HW,2013-11-21 22:01:00,
2013-11-21 17:06:00,70.7,62.0,30.26,NE,45,1.1,2.7,74,0.00,,,0.00,WUHU216HW,2013-11-21 22:06:00,
2013-11-21 17:11:00,70.6,62.2,30.26,NE,45,1.3,2.0,75,0.00,,,0.00,WUHU216HW,2013-11-21 22:11:00,
2013-11-21 17:16:00,70.2,61.8,30.26,NE,45,1.1,2.9,75,0.00,,,0.00,WUHU216HW,2013-11-21 22:16:00,
2013-11-21 17:21:00,70.0,62.0,30.26,ENE,68,2.7,2.9,76,0.00,,,0.00,WUHU216HW,2013-11-21 22:21:00,
2013-11-21 17:26:00,69.5,61.6,30.26,ENE,68,2.0,2.7,76,0.00,,,0.00,WUHU216HW,2013-11-21 22:26:00,
2013-11-21 17:31:00,69.3,61.7,30.26,ENE,68,3.1,3.1,77,0.00,,,0.00,WUHU216HW,2013-11-21 22:31:00,
2013-11-21 17:36:00,69.1,61.6,30.26,NE,45,4.7,4.7,77,0.00,,,0.00,WUHU216HW,2013-11-21 22:36:00,
2013-11-21 17:41:00,68.8,61.3,30.27,East,90,1.8,4.7,77,0.00,,,0.00,WUHU216HW,2013-11-21 22:41:00,
2013-11-21 17:46:00,68.4,61.3,30.27,NE,45,3.8,3.8,78,0.00,,,0.00,WUHU216HW,2013-11-21 22:46:00,
2013-11-21 17:51:00,68.0,61.0,30.27,NE,45,2.9,3.8,78,0.00,,,0.00,WUHU216HW,2013-11-21 22:51:00,
2013-11-21 17:56:00,67.9,61.2,30.27,ENE,68,2.0,3.1,79,0.00,,,0.00,WUHU216HW,2013-11-21 22:56:00,
2013-11-21 18:01:00,67.7,61.0,30.28,NE,45,2.0,3.6,79,0.00,,,0.00,WUHU216HW,2013-11-21 23:01:00,
2013-11-21 18:06:00,67.3,61.0,30.28,ENE,68,3.6,3.6,80,0.00,,,0.00,WUHU216HW,2013-11-21 23:06:00,
2013-11-21 18:11:00,67.1,60.8,30.28,NE,45,3.4,3.6,80,0.00,,,0.00,WUHU216HW,2013-11-21 23:11:00,
2013-11-21 18:16:00,67.0,60.7,30.28,ENE,68,2.0,3.4,80,0.00,,,0.00,WUHU216HW,2013-11-21 23:16:00,
2013-11-21 18:21:00,66.6,60.3,30.28,NE,45,2.0,3.1,80,0.00,,,0.00,WUHU216HW,2013-11-21 23:21:00,
2013-11-21 18:26:00,66.4,60.1,30.29,East,90,0.7,3.1,80,0.00,,,0.00,WUHU216HW,2013-11-21 23:26:00,
2013-11-21 18:31:00,66.2,59.9,30.29,NE,45,2.9,2.9,80,0.00,,,0.00,WUHU216HW,2013-11-21 23:31:00,
2013-11-21 18:36:00,66.1,59.8,30.29,ENE,68,2.0,2.9,80,0.00,,,0.00,WUHU216HW,2013-11-21 23:36:00,
2013-11-21 18:41:00,65.9,59.6,30.29,NE,45,1.1,2.5,80,0.00,,,0.00,WUHU216HW,2013-11-21 23:41:00,
2013-11-21 18:46:00,65.9,60.0,30.29,NNE,23,0.9,2.2,81,0.00,,,0.00,WUHU216HW,2013-11-21 23:46:00,
2013-11-21 18:51:00,65.7,59.8,30.29,ENE,68,2.0,3.6,81,0.00,,,0.00,WUHU216HW,2013-11-21 23:51:00,
2013-11-21 18:56:00,65.3,59.7,30.28,NE,45,2.2,3.6,82,0.00,,,0.00,WUHU216HW,2013-11-21 23:56:00,
2013-11-21 19:01:00,65.2,59.5,30.29,ENE,68,2.5,2.7,82,0.00,,,0.00,WUHU216HW,2013-11-22 00:01:00,
2013-11-21 19:06:00,65.2,59.5,30.29,ENE,68,2.7,2.7,82,0.00,,,0.00,WUHU216HW,2013-11-22 00:06:00,
2013-11-21 19:11:00,65.2,59.5,30.29,NE,45,3.1,3.1,82,0.00,,,0.00,WUHU216HW,2013-11-22 00:11:00,
2013-11-21 19:16:00,65.2,59.5,30.29,NE,45,0.4,3.1,82,0.00,,,0.00,WUHU216HW,2013-11-22 00:16:00,
2013-11-21 19:21:00,65.2,59.5,30.29,NE,45,2.2,2.2,82,0.00,,,0.00,WUHU216HW,2013-11-22 00:21:00,
2013-11-21 19:26:00,65.2,59.5,30.29,NNE,23,1.8,2.2,82,0.00,,,0.00,WUHU216HW,2013-11-22 00:26:00,
2013-11-21 19:31:00,65.2,59.9,30.29,North,0,1.8,2.5,83,0.00,,,0.00,WUHU216HW,2013-11-22 00:31:00,
2013-11-21 19:36:00,65.2,59.5,30.29,NE,45,0.2,2.5,82,0.00,,,0.00,WUHU216HW,2013-11-22 00:36:00,
2013-11-21 19:41:00,65.0,59.7,30.29,NE,45,2.5,2.5,83,0.00,,,0.00,WUHU216HW,2013-11-22 00:41:00,
2013-11-21 19:46:00,65.0,59.7,30.29,ENE,68,1.6,4.0,83,0.00,,,0.00,WUHU216HW,2013-11-22 00:46:00,
2013-11-21 19:51:00,65.0,60.0,30.29,ENE,68,2.5,4.0,84,0.00,,,0.00,WUHU216HW,2013-11-22 00:51:00,
2013-11-21 19:57:00,64.8,59.9,30.29,ENE,68,1.8,4.3,84,0.00,,,0.00,WUHU216HW,2013-11-22 00:57:00,
2013-11-21 20:02:00,64.8,59.9,30.29,NE,45,1.1,4.3,84,0.00,,,0.00,WUHU216HW,2013-11-22 01:02:00,
2013-11-21 20:07:00,64.6,59.3,30.29,NE,45,0.9,4.0,83,0.00,,,0.00,WUHU216HW,2013-11-22 01:07:00,
2013-11-21 20:12:00,64.4,59.1,30.29,NE,45,1.8,2.7,83,0.00,,,0.00,WUHU216HW,2013-11-22 01:12:00,
2013-11-21 20:17:00,64.4,59.1,30.29,NE,45,1.8,2.5,83,0.00,,,0.00,WUHU216HW,2013-11-22 01:17:00,
2013-11-21 20:22:00,64.4,59.1,30.30,NE,45,0.7,2.0,83,0.00,,,0.00,WUHU216HW,2013-11-22 01:22:00,
2013-11-21 20:27:00,64.3,59.0,30.30,NE,45,1.6,1.6,83,0.00,,,0.00,WUHU216HW,2013-11-22 01:27:00,
2013-11-21 20:32:00,64.1,58.8,30.30,NE,45,2.0,2.0,83,0.00,,,0.00,WUHU216HW,2013-11-22 01:32:00,
2013-11-21 20:37:00,64.1,58.8,30.30,NE,45,1.8,2.0,83,0.00,,,0.00,WUHU216HW,2013-11-22 01:37:00,
2013-11-21 20:42:00,64.1,59.1,30.30,NE,45,1.1,1.8,84,0.00,,,0.00,WUHU216HW,2013-11-22 01:42:00,
2013-11-21 20:47:00,64.1,59.1,30.30,NNE,23,0.7,2.5,84,0.00,,,0.00,WUHU216HW,2013-11-22 01:47:00,
2013-11-21 20:52:00,64.1,59.1,30.30,NE,45,0.7,2.9,84,0.00,,,0.00,WUHU216HW,2013-11-22 01:52:00,
2013-11-21 20:57:00,64.1,59.1,30.30,NE,45,1.3,2.9,84,0.00,,,0.00,WUHU216HW,2013-11-22 01:57:00,
2013-11-21 21:02:00,64.1,59.1,30.30,NE,45,1.3,2.0,84,0.00,,,0.00,WUHU216HW,2013-11-22 02:02:00,
2013-11-21 21:07:00,64.1,59.1,30.31,NE,45,2.9,2.9,84,0.00,,,0.00,WUHU216HW,2013-11-22 02:07:00,
2013-11-21 21:12:00,64.1,59.1,30.30,NE,45,2.9,2.9,84,0.00,,,0.00,WUHU216HW,2013-11-22 02:12:00,
2013-11-21 21:17:00,64.1,59.1,30.30,NE,45,1.1,2.9,84,0.00,,,0.00,WUHU216HW,2013-11-22 02:17:00,
2013-11-21 21:22:00,64.1,59.5,30.30,NE,45,0.9,3.4,85,0.00,,,0.00,WUHU216HW,2013-11-22 02:22:00,
2013-11-21 21:27:00,64.3,59.7,30.30,NE,45,2.0,3.4,85,0.00,,,0.00,WUHU216HW,2013-11-22 02:27:00,
2013-11-21 21:32:00,64.3,59.7,30.30,NE,45,2.9,2.9,85,0.00,,,0.00,WUHU216HW,2013-11-22 02:32:00,
2013-11-21 21:37:00,64.3,60.0,30.31,ENE,68,1.8,2.9,86,0.00,,,0.00,WUHU216HW,2013-11-22 02:37:00,
2013-11-21 21:42:00,64.1,59.9,30.30,ENE,68,2.2,2.7,86,0.00,,,0.00,WUHU216HW,2013-11-22 02:42:00,
2013-11-21 21:47:00,64.1,59.9,30.30,ENE,68,1.1,2.7,86,0.00,,,0.00,WUHU216HW,2013-11-22 02:47:00,
2013-11-21 21:52:00,64.1,59.9,30.30,NE,45,1.1,2.0,86,0.00,,,0.00,WUHU216HW,2013-11-22 02:52:00,
2013-11-21 21:57:00,64.3,60.4,30.30,NE,45,1.8,2.2,87,0.00,,,0.00,WUHU216HW,2013-11-22 02:57:00,
2013-11-21 22:02:00,64.1,60.2,30.30,ENE,68,2.2,3.8,87,0.00,,,0.00,WUHU216HW,2013-11-22 03:02:00,
2013-11-21 22:07:00,64.1,60.2,30.30,NE,45,2.2,3.8,87,0.00,,,0.00,WUHU216HW,2013-11-22 03:07:00,
2013-11-21 22:12:00,64.1,60.2,30.30,NE,45,2.0,3.4,87,0.00,,,0.00,WUHU216HW,2013-11-22 03:12:00,
2013-11-21 22:17:00,64.1,60.2,30.29,NE,45,1.6,3.4,87,0.00,,,0.00,WUHU216HW,2013-11-22 03:17:00,
2013-11-21 22:22:00,64.1,60.2,30.29,NE,45,1.3,2.5,87,0.00,,,0.00,WUHU216HW,2013-11-22 03:22:00,
2013-11-21 22:27:00,64.1,60.2,30.29,NE,45,2.2,2.9,87,0.00,,,0.00,WUHU216HW,2013-11-22 03:27:00,
2013-11-21 22:32:00,64.1,60.2,30.29,NE,45,1.6,2.9,87,0.00,,,0.00,WUHU216HW,2013-11-22 03:32:00,
2013-11-21 22:37:00,64.3,60.4,30.29,NE,45,0.4,2.7,87,0.00,,,0.00,WUHU216HW,2013-11-22 03:37:00,
2013-11-21 22:42:00,64.1,60.2,30.29,NE,45,1.6,2.7,87,0.00,,,0.00,WUHU216HW,2013-11-22 03:42:00,
2013-11-21 22:47:00,64.3,60.4,30.29,NNE,23,0.9,2.7,87,0.00,,,0.00,WUHU216HW,2013-11-22 03:47:00,
2013-11-21 22:52:00,64.3,60.4,30.29,NE,45,1.8,2.7,87,0.00,,,0.00,WUHU216HW,2013-11-22 03:52:00,
2013-11-21 22:57:00,64.3,60.4,30.29,NE,45,1.8,2.2,87,0.00,,,0.00,WUHU216HW,2013-11-22 03:57:00,
2013-11-21 23:02:00,64.3,60.4,30.29,NNE,23,1.1,2.9,87,0.00,,,0.00,WUHU216HW,2013-11-22 04:02:00,
2013-11-21 23:07:00,64.3,60.7,30.29,NE,45,1.6,2.9,88,0.00,,,0.00,WUHU216HW,2013-11-22 04:07:00,
2013-11-21 23:12:00,64.3,60.4,30.29,NE,45,1.6,2.7,87,0.00,,,0.00,WUHU216HW,2013-11-22 04:12:00,
2013-11-21 23:17:00,64.3,60.4,30.29,NE,45,0.9,2.7,87,0.00,,,0.00,WUHU216HW,2013-11-22 04:17:00,
2013-11-21 23:22:00,64.4,60.6,30.29,NNE,23,2.2,2.2,87,0.00,,,0.00,WUHU216HW,2013-11-22 04:22:00,
2013-11-21 23:27:00,64.4,60.6,30.29,NNE,23,1.1,2.2,87,0.00,,,0.00,WUHU216HW,2013-11-22 04:27:00,
2013-11-21 23:32:00,64.4,60.8,30.29,NNE,23,1.1,1.6,88,0.00,,,0.00,WUHU216HW,2013-11-22 04:32:00,
2013-11-21 23:37:00,64.4,60.8,30.29,NE,45,0.9,1.6,88,0.00,,,0.00,WUHU216HW,2013-11-22 04:37:00,
2013-11-21 23:42:00,64.4,60.8,30.29,NE,45,1.8,2.0,88,0.00,,,0.00,WUHU216HW,2013-11-22 04:42:00,
2013-11-21 23:47:00,64.4,60.8,30.29,NNE,23,1.1,2.0,88,0.00,,,0.00,WUHU216HW,2013-11-22 04:47:00,
2013-11-21 23:52:00,64.4,60.8,30.29,NNE,23,0.9,1.8,88,0.00,,,0.00,WUHU216HW,2013-11-22 04:52:00,
2013-11-21 23:57:00,64.4,60.8,30.29,NE,45,1.8,1.8,88,0.00,,,0.00,WUHU216HW,2013-11-22 04:57:00,